Cloud_Cover
5 0 0 0 5 2 3 99 100 100 100 88 5 37 3 0 2 10 87 9 72 98 30 5 0 20 21 23 100 61 100 100 29 0 0 4 2 0 0 0 0 0 0 0 0 0 0 0 0
1 5 5 5 3 52 1 26 100 100 100 25 4 19 34 0 3 0 0 8 2 43 92 69 2 4 90 77 50 5 79 86 90 15 4 1 10 8 5 1 0 0 0 0 0 0 0 0 0
0 1 4 15 1 2 86 98 100 100 55 70 24 96 74 91 78 2 0 4 4 0 4 6 5 5 59 36 11 4 15 59 75 99 100 16 5 8 79 45 8 5 0 0 0 0 5 3 1
0 2 0 0 0 84 91 89 7 6 100 73 79 99 100 100 100 100 15 0 0 0 0 0 0 2 0 14 4 0 5 2 5 6 49 100 91 5 7 35 100 95 84 100 77 4 89 96 61
0 0 0 0 0 56 60 86 81 4 13 99 98 100 100 100 100 100 100 7 11 0 12 15 3 1 5 17 14 14 23 0 4 10 6 34 73 100 100 98 95 14 100 100 97 100 92 100 100
0 0 0 0 0 3 100 31 28 32 0 9 100 100 100 100 100 100 100 100 100 97 5 100 99 41 70 61 89 86 70 30 4 2 5 30 1 4 6 10 43 5 5 3 82 73 100 100 100
0 0 0 0 0 14 93 15 81 23 95 0 100 100 100 100 100 100 100 100 100 100 99 92 100 100 100 100 89 92 91 86 5 0 2 60 15 2 5 5 5 5 15 80 30 11 48 30 6
0 0 0 0 0 76 25 52 49 9 5 5 51 100 100 100 100 100 100 100 100 100 100 100 100 100 100 100 100 100 100 100 100 90 100 100 100 100 100 89 55 5 13 6 11 16 6 5 6
0 0 0 0 0 59 97 98 14 3 5 5 3 30 100 100 100 100 100 100 100 100 100 100 100 100 100 100 94 46 17 100 100 100 100 100 100 100 98 100 97 95 12 17 38 65 8 22 27
0 0 0 0 0 14 5 20 100 53 3 4 22 100 100 100 100 100 100 100 100 100 100 100 100 100 100 100 93 93 25 4 32 42 100 87 100 100 100 100 100 100 56 100 34 73 91 90 67
0 0 0 0 0 1 5 1 97 91 34 5 0 1 94 100 100 100 100 100 100 100 100 100 100 98 100 85 80 100 99 95 67 98 100 100 100 100 100 100 100 100 100 93 96 100 100 100 100
0 0 0 0 0 0 0 0 13 100 85 1 0 100 100 100 100 100 100 100 100 100 100 100 100 100 100 92 99 67 83 100 100 100 100 100 100 100 100 100 100 100 100 100 100 100 95 76 100
0 0 0 0 0 0 0 0 0 0 2 4 29 86 100 100 100 100 100 100 98 91 100 100 100 100 34 100 100 100 100 100 100 100 100 100 100 100 100 100 100 100 100 100 100 100 100 98 100
0 0 0 0 0 0 0 0 0 0 0 23 63 44 38 70 100 88 22 28 22 8 84 92 100 100 100 100 100 100 83 79 98 100 100 100 100 100 100 100 100 100 100 100 100 100 100 100 100
0 0 0 0 0 0 0 1 50 2 0 3 0 0 0 4 5 44 81 93 43 6 1 4 5 12 100 100 86 81 28 48 100 100 100 100 100 100 100 100 100 100 100 100 100 100 100 100 100
0 0 0 0 0 0 0 0 4 0 0 0 0 0 0 3 72 93 99 91 99 92 61 81 100 58 32 1 29 100 100 7 66 92 100 100 100 100 100 100 100 100 100 100 100 100 100 100 78
0 0 0 0 0 0 0 0 0 0 0 0 0 0 0 0 0 16 100 100 100 100 100 100 100 100 98 2 5 52 98 22 42 97 100 100 100 100 100 100 100 100 100 100 100 100 100 100 85
0 0 9 24 8 0 0 0 0 0 0 0 0 0 0 0 0 0 6 99 100 100 96 65 58 68 100 32 78 35 91 100 50 95 99 100 100 100 100 100 100 100 100 100 100 100 100 100 96
0 2 70 90 41 95 0 0 0 0 0 0 0 0 0 0 0 0 0 4 48 7 34 4 14 12 4 72 85 17 8 100 100 100 100 100 100 100 100 100 100 100 100 100 100 100 100 100 93
0 0 5 35 7 19 2 0 0 0 0 0 0 0 0 0 0 3 0 0 0 0 0 0 23 38 77 0 1 3 5 34 5 73 97 100 100 100 100 100 100 100 100 100 100 100 100 100 96
0 0 0 0 46 5 0 0 0 0 0 0 0 2 0 59 76 76 5 2 0 0 0 0 0 7 4 0 6 30 85 42 65 23 6 42 75 100 100 100 100 100 100 100 100 100 100 100 100
0 0 0 0 0 0 1 0 0 2 27 63 100 93 4 18 48 11 2 0 0 0 0 0 0 4 5 4 0 0 4 4 55 100 49 5 17 24 96 99 100 100 100 100 100 100 100 100 100
0 0 0 0 0 0 0 0 0 4 44 95 97 100 95 5 0 0 0 0 0 0 0 0 0 0 0 0 2 5 5 5 5 5 17 5 5 39 5 23 5 4 5 5 5 53 92 70 40
0 0 0 0 0 0 7 95 4 6 31 83 85 60 1 0 0 0 0 0 0 0 0 0 0 0 3 5 5 7 66 61 25 16 9 35 5 4 20 0 2 3 0 0 1 2 23 8 81
0 0 0 0 2 49 48 41 76 30 12 94 100 8 3 0 0 0 1 1 0 0 3 4 5 24 5 5 5 4 4 0 0 0 0 0 0 0 0 0 9 32 47 48 96 100 82 44 49
0 0 0 5 0 37 100 2 0 4 90 97 16 5 5 5 3 8 0 0 0 0 0 5 5 5 1 0 0 0 0 0 0 0 0 0 0 0 0 0 0 0 9 3 1 2 2 0 0
0 0 0 0 0 0 2 0 0 0 2 5 5 5 3 25 0 0 0 0 0 0 0 0 0 0 0 0 0 0 0 0 1 5 5 5 5 7 6 5 5 96 94 23 21 86 100 99 36
0 0 0 1 0 2 3 0 1 2 2 0 0 2 37 2 1 8 9 0 0 0 0 0 0 0 1 60 90 97 9 9 5 5 5 5 48 24 6 5 18 12 82 76 100 100 100 100 98
4 4 4 0 0 5 4 3 0 0 0 5 4 3 0 3 86 36 3 0 0 0 0 0 0 40 100 99 28 9 5 69 92 53 81 85 54 64 99 99 82 6 86 100 100 100 100 100 100
7 80 3 0 0 3 4 11 0 0 3 14 5 5 5 5 4 0 0 0 0 0 0 0 66 100 100 37 70 6 43 65 96 100 100 100 100 100 27 5 5 6 14 93 21 18 99 100 79